sat.trackr.live / text

‹ back to catalog

STARLINK-33580

NORAD 63711 · 2025-087Q

PAYLOAD ACTIVE UNKNOWN

§ Identity

Operator
Country
US
Launch date
2025-04-28
Launch site
AFWTR
Launch vehicle
Mass (kg)
RCS (m²)

Purposes: comms

External: N2YO · Heavens-Above · Gunter

§ Orbital elements

Epoch: 2026-05-24T22:42:01.224000Z

Period
94.01 min
Inclination
53.1587°
Eccentricity
0.0001401
Mean motion
15.31706572 rev/d
Perigee alt
469.8 km
Apogee alt
471.7 km
Semi-major
6,848.9 km
B*
5.5701e-4
RAAN
225.4351°
Arg perigee
91.4417°
Mean anomaly
268.6745°
Rev number
6,087

§ Raw data

STARLINK-335801 63711U 25087Q   26144.94584750  .00016962  00000+0  55701-3 0  99932 63711  53.1587 225.4351 0001401  91.4417 268.6745 15.31706572 60879

JSON: /api/v1/satellites/63711 · /tle

For live sub-satellite position, see the globe view (requires WebGL).

§ Visibility from observer

Set your observer location to see the next 7 days of passes ≥ 10°. The values pass through the URL so the page stays shareable.

No JS? Fill the form by hand. The geolocation button needs JavaScript.